(364) Isara
ephemeris date magn radius delta ra dec elong phase
Opposition28 May 202613.12.546 AU1.537 AU16h28m-15°31'173.8°2.5°
Today15 Jun 202613.52.541 AU1.566 AU16h09m-15°26'159.1°8.2°
(364) Isara - 2026-06-15
astro.vanbuitenen.nl


 
-1 year
-1 month
-1 day
Now
+1 day
+1 month
+1 year

The interactive orbit chart above shows the body's path through the solar system and its position at the given date. Green and blue lines are shown perpendicular to the ecliptic plane: Green if the path is above the ecliptic plane, blue if it is below. (Left-click and drag to rotate the view; Right-click and drag to move the view; Use scroll wheel to zoom in our out.)

The orbital elements of Isara are:

            e (Eccentricity)                : 0.1490475
            a (Semimajor axis)              : 2.2205576
            i (Inclination)                 : 6.00614
            Ω (Longitude of ascending node) : 105.50233
            ω (Argument of perihelion)      : 312.98736
            M (Mean anomaly)                : 195.10732
            Epoch                           : 2026 Jun 09

            L (Longitude of perihelion)     : 58.64702
            B (Latitude of perihelion)      : -4.38977
            P (Orbital period in years)     : 3.31            
        

The light curve chart below shows the estimated development of the minor planet's magnitude.


The all-sky chart below shows the path of the minor planet over the same period as the light curve. The current position is marked yellow.





The following chart shows the path of the minor planet in the next few days. The field of view is optimized for (~10x50) binoculars and finderscopes.




Ephemerides:
Date       Time       RA (2000)    DEC (2000)    delta   radius  elong  phase   PA    magn
2026-06-15 00:00 UT   16 09 44.9   -15 26 12     1.566    2.541  159.1    8.2   115   13.5 
2026-06-15 20:48 UT   16 08 55.9   -15 26 26     1.569    2.540  158.1    8.6   114   13.5 
2026-06-16 00:00 UT   16 08 48.4   -15 26 29     1.570    2.540  158.0    8.6   114   13.5 
2026-06-17 00:00 UT   16 07 53.0   -15 26 50     1.574    2.540  156.9    9.0   114   13.5 
2026-06-18 00:00 UT   16 06 58.8   -15 27 17     1.579    2.539  155.7    9.5   113   13.6 
2026-06-19 00:00 UT   16 06 05.8   -15 27 47     1.584    2.539  154.6    9.9   112   13.6 
2026-06-20 00:00 UT   16 05 14.2   -15 28 23     1.589    2.539  153.5   10.3   112   13.6 
2026-06-21 00:00 UT   16 04 23.9   -15 29 04     1.594    2.538  152.4   10.7   111   13.6 
2026-06-22 00:00 UT   16 03 34.9   -15 29 49     1.599    2.538  151.2   11.1   111   13.6 
2026-06-23 00:00 UT   16 02 47.4   -15 30 39     1.605    2.537  150.1   11.5   110   13.7 
2026-06-24 00:00 UT   16 02 01.4   -15 31 34     1.611    2.537  149.0   11.9   110   13.7 
2026-06-25 00:00 UT   16 01 16.8   -15 32 34     1.617    2.537  147.9   12.3   109   13.7 
2026-06-26 00:00 UT   16 00 33.8   -15 33 39     1.624    2.536  146.8   12.7   109   13.7 
2026-06-27 00:00 UT   15 59 52.3   -15 34 50     1.630    2.536  145.7   13.0   109   13.8 
2026-06-28 00:00 UT   15 59 12.4   -15 36 05     1.637    2.535  144.6   13.4   108   13.8 
2026-06-29 00:00 UT   15 58 34.1   -15 37 25     1.644    2.535  143.6   13.8   108   13.8 
2026-06-30 00:00 UT   15 57 57.4   -15 38 50     1.651    2.534  142.5   14.1   108   13.8 
2026-07-01 00:00 UT   15 57 22.3   -15 40 20     1.658    2.534  141.4   14.5   108   13.8 
2026-07-02 00:00 UT   15 56 48.9   -15 41 56     1.666    2.533  140.3   14.8   107   13.9 
2026-07-03 00:00 UT   15 56 17.2   -15 43 36     1.674    2.533  139.3   15.2   107   13.9 
2026-07-04 00:00 UT   15 55 47.2   -15 45 22     1.682    2.532  138.2   15.5   107   13.9 
2026-07-05 00:00 UT   15 55 18.9   -15 47 12     1.690    2.532  137.2   15.8   107   13.9 
2026-07-06 00:00 UT   15 54 52.3   -15 49 08     1.698    2.531  136.2   16.2   107   13.9 
2026-07-07 00:00 UT   15 54 27.4   -15 51 09     1.706    2.531  135.1   16.5   106   14.0 
2026-07-08 00:00 UT   15 54 04.3   -15 53 15     1.715    2.530  134.1   16.8   106   14.0 
2026-07-09 00:00 UT   15 53 42.9   -15 55 25     1.724    2.530  133.1   17.1   106   14.0 
2026-07-10 00:00 UT   15 53 23.3   -15 57 41     1.733    2.529  132.1   17.4   106   14.0 
2026-07-11 00:00 UT   15 53 05.4   -16 00 02     1.742    2.528  131.0   17.7   106   14.1 
2026-07-12 00:00 UT   15 52 49.4   -16 02 27     1.751    2.528  130.0   17.9   106   14.1 
2026-07-13 00:00 UT   15 52 35.0   -16 04 58     1.760    2.527  129.1   18.2   105   14.1 
2026-07-14 00:00 UT   15 52 22.5   -16 07 33     1.770    2.527  128.1   18.5   105   14.1 
2026-07-15 00:00 UT   15 52 11.7   -16 10 13     1.780    2.526  127.1   18.7   105   14.1 


    Terminology:
            
    delta:  distance between minor planet and earth in AU
    radius: distance between minor planet and sun in AU
    magn:   magnitude (brightness) estimate    
    ra:     right ascension in hours (24h = 360deg)
    dec:    declination in degrees
    elong:  elongation in degrees (angle sun-earth-minor planet)    
    phase:  phase angle in degrees (angle sun-minor planet-earth)        
    AU:     Astronomical Unit (mean distance between earth and sun: 149597870.7 km
    

Orbital elements provided by the MPC (Minor Planet Center).
Calculations by a modified version of AAPlus, a C# implementation of the AA+ project by PJ Naughter from the algorithms presented in the book "Astronomical Algorithms" by Jean Meeus.
NGC2000 dso catalog and star labels from VizieR as provided by the Strasbourg astronomical Data Center.
Tycho2 catalog from the ESO archive.